DELTA 1 DEB, 12538

Orbit data source: Space-Track

DELTA 1 DEB, 12538 is space debris in SSO originally from a launch on Thu, 29 Jul 1976 UTC launched from the Air Force Western Test Range (AFWTR). Debris objects in space refer to the collection of defunct objects orbiting the Earth. Examples of debris include non-operational satellites, rocket bodies, and fragments generated from explosions, collisions, or faulty payload assembly.

Loading next visibility...
Identifier
12538, 1976-077DT
Orbit
SSO
Country
Flag of USUS
Related business
Manufacturer
Unknown
Mission
Spacecraft
Bus & Motor
Unknown
Mass
Unknown
Launch date (UTC)
1976-07-29 (50 years ago)
Launch vehicle
Unknown
Launch site
Air Force Western Test Range (AFWTR)
Object type
Payload
Rocket body
Debris
Shape & HBR
Unknown shape, 0.2 m
Radar Cross Section
Medium (>0.1 m² and <1 m²)

Expand to show TLE details & history
Last TLE update: 12 hours ago

TLE from 12 hours ago
0 DELTA 1 DEB
1 12538U 76077DT  26255.73440815 -.00000040  00000-0  40029-4 0  9992
2 12538 102.7788 349.6028 0198387 117.3800  35.8561 12.05753963 42984
Epoch: 2026-09-12T17:37Z
TLE epoch observation values (Epoch: 2026-09-12T17:37:32.864Z)
Latitude
24.76145°
Longitude
-80.54786°
Altitude
1,529.73 km
Speed
7.159 km/s
True Right ascension
11h 42m 18s
True Declination
24° 38' 37"
Sunlit
Object was in daylight at epoch
Visualization orbit readout
Latitude
Unknown
Longitude
Unknown
Altitude
Unknown
Speed
Unknown
Apparent Right ascension
Unknown
Apparent Declination
Unknown
Sunlit
N/A
Visualization observer readout
Local Sidereal Time
22:29:06
Azimuth
Unknown
Elevation
Unknown
Doppler factor
Unknown
Orbital elements
Apogee altitude
1,812.191 km
Perigee altitude
1,493.542 km
Semi-major axis
8,031.003 km
Eccentricity
0.01984
Inclination
102.7788°
RAAN
349.6028°
Arg. of periapsis
117.38°
True anomaly
37.21488°
Mean anomaly
35.8561°
Eccentric anomaly
36.53274°
Mean motion
3.0157 °/min
Orbital period
119.38 mins
BSTAR
0.000040029
Loading maneuver chart data...
Computing Atmospheric mass density...
Loading historical data...
Loading historical data...
Loading historical data...
Loading historical data...
Loading historical data...
Loading historical data...
Loading historical data...

Documentation

Showing up to 5 results
|